Location: Mahannah Oil Field
(37.4664°N, 96.6003°W)
Time: 14:36:22
(UTC+00:00)

A-11 Canister half - Pass Details

Date: 21 January 2021
Orbit: 1525 x 1684 km, 47.3° (Epoch: 05 March)

Event Time Altitude Azimuth Distance (km) Brightness Sun altitude
Rises 03:59:52 0° 302° (WNW) 4,793 12.2 -51.5°
Reaches altitude 10° 04:02:55 10° 301° (WNW) 3,827 11.5 -52.1°
Enters shadow 04:07:09 31° 299° (WNW) 2,578 10.3 -52.9°
